This is the latest recevied weather packets stored in our database for station/object KJ5IIV. If no packets are shown the sender has not sent any weather packets the latest 10 day(s).
| Time | Temp. | Humidity | Pressure | Rain* | Wind** | Luminosity | Snow |
|---|---|---|---|---|---|---|---|
| 1777470190 | 17.22° C | 93% | 1014.3 hPa | 0 mm | - | 47 W/m² | - |
| 1777469887 | 17.22° C | 92% | 1014.3 hPa | 0 mm | - | 33 W/m² | - |
| 1777469583 | 17.22° C | 92% | 1014.5 hPa | 0 mm | - | 24 W/m² | - |
| 1777469277 | 17.78° C | 91% | 1014.5 hPa | 0 mm | - | 35 W/m² | - |
| 1777468973 | 17.78° C | 91% | 1014.1 hPa | 0 mm | - | 34 W/m² | - |
| 1777468669 | 17.78° C | 90% | 1014.1 hPa | 0 mm | - | 31 W/m² | - |
| 1777468366 | 17.78° C | 90% | 1013.9 hPa | 0 mm | - | 21 W/m² | - |
| 1777468062 | 17.78° C | 90% | 1014 hPa | 0 mm | - | 18 W/m² | - |
| 1777467758 | 17.78° C | 90% | 1014 hPa | 0 mm | - | 19 W/m² | - |
| 1777467453 | 17.78° C | 89% | 1014 hPa | 0 mm | - | 22 W/m² | - |
| 1777467148 | 17.78° C | 89% | 1014 hPa | 0 mm | - | 21 W/m² | - |
| 1777466846 | 18.33° C | 91% | 1013.8 hPa | 0 mm | - | 17 W/m² | - |
| 1777466544 | 18.33° C | 90% | 1013.7 hPa | 0 mm | - | 15 W/m² | - |
| 1777466241 | 18.33° C | 91% | 1013.4 hPa | 0 mm | - | 12 W/m² | - |
| 1777465936 | 18.33° C | 91% | 1013.4 hPa | 0 mm | - | 12 W/m² | - |
| 1777465633 | 18.89° C | 91% | 1013.5 hPa | 0 mm | - | 12 W/m² | - |
| 1777465329 | 18.89° C | 92% | 1013.2 hPa | 0 mm | - | 8 W/m² | - |
| 1777465027 | 18.89° C | 92% | 1013.3 hPa | 0 mm | - | 6 W/m² | - |
| 1777464722 | 18.89° C | 92% | 1013.2 hPa | 0 mm | - | 5 W/m² | - |
| 1777464419 | 18.89° C | 92% | 1013.1 hPa | 0 mm | - | 4 W/m² | - |
| 1777464115 | 18.89° C | 92% | 1013 hPa | 0 mm | - | 3 W/m² | - |
| 1777463815 | 18.89° C | 92% | 1012.9 hPa | 0 mm | - | 3 W/m² | - |
| 1777463510 | 18.89° C | 92% | 1012.8 hPa | 0 mm | - | 2 W/m² | - |
| 1777463206 | 19.44° C | 92% | 1012.8 hPa | 0 mm | - | 2 W/m² | - |
| 1777462902 | 19.44° C | 92% | 1012.8 hPa | 0 mm | - | 1 W/m² | - |
* Rain latest hour (hover to see other rain measurements)
** Current wind speed in m/s (hover to see current wind gust speed)